Weather History for KAVK - November, 2012

Change the Weather History Date:

Monday, November 12, 2012

  Actual Average Record
Temperature  
Mean Temperature 36 °F -  
Max Temperature 53 °F 61 °F 82 °F (1971)
Min Temperature 19 °F 37 °F 12 °F (1950)
Degree Days  
Heating Degree Days 29    
Moisture  
Dew Point 19 °F    
Average Humidity 54    
Maximum Humidity 86    
Minimum Humidity 22    
Precipitation  
Precipitation 0.00 in - - ()
Sea Level Pressure  
Sea Level Pressure 30.41 in    
Wind  
Wind Speed 6 mph (West)    
Max Wind Speed 12 mph    
Max Gust Speed -    
Visibility 10 miles    
Events      
Averages and records for this station are not official NWS values.
T = Trace of Precipitation, MM = Missing Value Source: NWS Daily Summary

Daily Weather History Graph

Daily Weather History Graph

Search for Another Location

Airport or City:

Trip Planner

Search our weather history database for the weather conditions in past years. The results will help you decide how hot, cold, wet, or windy it might be!

Date:

Astronomy

Nov. 12, 2012 Rise Set
Actual Time 7:10 AM CST 5:27 PM CST
Civil Twilight 6:42 AM CST 5:54 PM CST
Nautical Twilight 6:11 AM CST 6:25 PM CST
Astronomical Twilight 5:41 AM CST 6:56 PM CST
Moon 5:38 AM CST (11/12) 4:32 PM CST (11/12)
Length of Visible Light 11h 11m
Length of Day
10h 17m
Waning Crescent, 2% of the Moon is Illuminated
Nov 12
Waning Crescent
Nov 13
New
Nov 20
First Quarter
Nov 28
Full
Dec 6
Last Quarter

Hourly Weather History & Observations

Time (CST) Temp. Windchill Dew Point Humidity Pressure Visibility Wind Dir Wind Speed Gust Speed Precip Events Conditions
12:15 AM 24.8 °F 20.5 °F 17.6 °F 74% 30.33 in 10.0 mi NW 3.5 mph - N/A   Clear
12:35 AM 26.6 °F 22.6 °F 17.6 °F 69% 30.33 in 10.0 mi NW 3.5 mph - N/A   Clear
1:15 AM 24.8 °F 16.9 °F 17.6 °F 74% 30.33 in 10.0 mi NNW 6.9 mph - N/A   Clear
1:35 AM 26.6 °F 21.2 °F 17.6 °F 69% 30.34 in 10.0 mi NW 4.6 mph - N/A   Clear
1:55 AM 26.6 °F 21.2 °F 17.6 °F 69% 30.34 in 10.0 mi NW 4.6 mph - N/A   Clear
2:15 AM 26.6 °F 21.2 °F 17.6 °F 69% 30.34 in 10.0 mi NW 4.6 mph - N/A   Partly Cloudy
2:35 AM 24.8 °F 17.9 °F 15.8 °F 69% 30.35 in 10.0 mi WNW 5.8 mph - N/A   Partly Cloudy
2:55 AM 23.0 °F 14.7 °F 15.8 °F 74% 30.36 in 10.0 mi NW 6.9 mph - N/A   Partly Cloudy
3:15 AM 23.0 °F 17.0 °F 15.8 °F 74% 30.36 in 10.0 mi West 4.6 mph - N/A   Clear
3:35 AM 21.2 °F 13.6 °F 15.8 °F 80% 30.37 in 10.0 mi West 5.8 mph - N/A   Partly Cloudy
3:55 AM 21.2 °F 13.6 °F 15.8 °F 80% 30.37 in 10.0 mi West 5.8 mph - N/A   Partly Cloudy
4:15 AM 19.4 °F 12.8 °F 15.8 °F 86% 30.38 in 10.0 mi WSW 4.6 mph - N/A   Partly Cloudy
4:35 AM 21.2 °F 12.6 °F 15.8 °F 80% 30.38 in 10.0 mi WNW 6.9 mph - N/A   Partly Cloudy
4:55 AM 23.0 °F 14.7 °F 17.6 °F 80% 30.38 in 10.0 mi WNW 6.9 mph - N/A   Partly Cloudy
5:15 AM 21.2 °F 12.6 °F 15.8 °F 80% 30.40 in 10.0 mi West 6.9 mph - N/A   Partly Cloudy
5:35 AM 23.0 °F 13.9 °F 17.6 °F 80% 30.40 in 10.0 mi WSW 8.1 mph - N/A   Scattered Clouds
5:55 AM 23.0 °F 14.7 °F 17.6 °F 80% 30.41 in 10.0 mi West 6.9 mph - N/A   Scattered Clouds
6:15 AM 24.8 °F 16.9 °F 17.6 °F 74% 30.41 in 10.0 mi West 6.9 mph - N/A   Scattered Clouds
6:35 AM 24.8 °F 17.9 °F 17.6 °F 74% 30.42 in 10.0 mi West 5.8 mph - N/A   Scattered Clouds
6:55 AM 23.0 °F 13.9 °F 17.6 °F 80% 30.42 in 10.0 mi WNW 8.1 mph - N/A   Partly Cloudy
7:15 AM 24.8 °F 15.3 °F 17.6 °F 74% 30.43 in 10.0 mi NW 9.2 mph - N/A   Clear
7:35 AM 24.8 °F 17.9 °F 19.4 °F 80% 30.45 in 10.0 mi WNW 5.8 mph - N/A   Clear
7:55 AM 26.6 °F 22.6 °F 19.4 °F 74% 30.45 in 10.0 mi WSW 3.5 mph - N/A   Clear
8:15 AM 30.2 °F 24.3 °F 19.4 °F 64% 30.45 in 10.0 mi West 5.8 mph - N/A   Clear
8:35 AM 32.0 °F 24.8 °F 23.0 °F 69% 30.45 in 10.0 mi West 8.1 mph - N/A   Clear
8:55 AM 33.8 °F 27.0 °F 23.0 °F 65% 30.46 in 10.0 mi West 8.1 mph - N/A   Clear
9:15 AM 35.6 °F 29.9 °F 23.0 °F 60% 30.47 in 10.0 mi West 6.9 mph - N/A   Clear
9:35 AM 39.2 °F 34.2 °F 21.2 °F 49% 30.47 in 10.0 mi West 6.9 mph - N/A   Clear
9:55 AM 41.0 °F 35.2 °F 23.0 °F 49% 30.47 in 10.0 mi West 9.2 mph - N/A   Clear
10:15 AM 44.6 °F 39.7 °F 21.2 °F 39% 30.47 in 10.0 mi West 9.2 mph - N/A   Clear
10:35 AM 46.4 °F 41.9 °F 19.4 °F 34% 30.47 in 10.0 mi West 9.2 mph - N/A   Clear
10:55 AM 46.4 °F 41.5 °F 19.4 °F 34% 30.46 in 10.0 mi West 10.4 mph - N/A   Clear
11:15 AM 48.2 °F - 19.4 °F 32% 30.46 in 10.0 mi West 11.5 mph - N/A   Clear
11:35 AM 48.2 °F - 19.4 °F 32% 30.45 in 10.0 mi West 6.9 mph - N/A   Clear
11:55 AM 48.2 °F - 19.4 °F 32% 30.45 in 10.0 mi WSW 11.5 mph - N/A   Clear
12:15 PM 48.2 °F - 19.4 °F 32% 30.44 in 10.0 mi WSW 6.9 mph - N/A   Clear
12:35 PM 50.0 °F - 19.4 °F 30% 30.43 in 10.0 mi West 9.2 mph - N/A   Clear
12:55 PM 50.0 °F - 19.4 °F 30% 30.42 in 10.0 mi West 9.2 mph - N/A   Clear
1:15 PM 50.0 °F - 17.6 °F 28% 30.41 in 10.0 mi West 8.1 mph - N/A   Clear
1:35 PM 51.8 °F - 17.6 °F 26% 30.41 in 10.0 mi WSW 10.4 mph - N/A   Clear
1:55 PM 51.8 °F - 15.8 °F 24% 30.40 in 10.0 mi West 8.1 mph - N/A   Clear
2:20 PM 53.6 °F - 15.8 °F 22% 30.40 in 10.0 mi West 9.2 mph - N/A   Clear
2:40 PM 51.8 °F - 15.8 °F 24% 30.40 in 10.0 mi West 5.8 mph - N/A   Clear
3:00 PM 53.6 °F - 17.6 °F 24% 30.40 in 10.0 mi West 4.6 mph - N/A   Clear
3:20 PM 51.8 °F - 15.8 °F 24% 30.40 in 10.0 mi West 3.5 mph - N/A   Clear
3:40 PM 51.8 °F - 15.8 °F 24% 30.40 in 10.0 mi West 5.8 mph - N/A   Clear
4:00 PM 51.8 °F - 15.8 °F 24% 30.40 in 10.0 mi WSW 4.6 mph - N/A   Clear
4:20 PM 51.8 °F - 15.8 °F 24% 30.40 in 10.0 mi Calm Calm - N/A   Clear
4:40 PM 50.0 °F - 15.8 °F 26% 30.40 in 10.0 mi WNW 3.5 mph - N/A   Clear
5:00 PM 48.2 °F - 17.6 °F 30% 30.40 in 10.0 mi WSW 3.5 mph - N/A   Clear
5:15 PM 48.2 °F - 17.6 °F 30% 30.40 in 10.0 mi WNW 3.5 mph - N/A   Clear
5:35 PM 48.2 °F - 17.6 °F 30% 30.40 in 10.0 mi NW 3.5 mph - N/A   Clear
5:55 PM 46.4 °F 45.2 °F 17.6 °F 32% 30.40 in 10.0 mi NW 3.5 mph - N/A   Clear
6:15 PM 46.4 °F 45.2 °F 15.8 °F 29% 30.40 in 10.0 mi NW 3.5 mph - N/A   Clear
6:35 PM 46.4 °F 44.3 °F 14.0 °F 27% 30.41 in 10.0 mi NW 4.6 mph - N/A   Clear
7:15 PM 44.6 °F 42.2 °F 14.0 °F 29% 30.41 in 10.0 mi NNW 4.6 mph - N/A   Clear
7:35 PM 44.6 °F - 14.0 °F 29% 30.41 in 10.0 mi Calm Calm - N/A   Clear
7:55 PM 41.0 °F 38.0 °F 17.6 °F 39% 30.41 in 10.0 mi SE 4.6 mph - N/A   Clear
8:15 PM 37.4 °F 32.8 °F 21.2 °F 52% 30.41 in 10.0 mi SSE 5.8 mph - N/A   Clear
8:35 PM 32.0 °F 24.2 °F 23.0 °F 69% 30.42 in 10.0 mi South 9.2 mph - N/A   Clear
8:55 PM 32.0 °F 25.6 °F 23.0 °F 69% 30.43 in 10.0 mi SSW 6.9 mph - N/A   Clear
9:15 PM 32.0 °F 26.4 °F 23.0 °F 69% 30.44 in 10.0 mi SSW 5.8 mph - N/A   Clear
9:35 PM 35.6 °F 30.7 °F 21.2 °F 56% 30.44 in 10.0 mi South 5.8 mph - N/A   Clear
9:55 PM 32.0 °F 26.4 °F 21.2 °F 64% 30.44 in 10.0 mi SSW 5.8 mph - N/A   Clear
10:15 PM 32.0 °F 24.2 °F 21.2 °F 64% 30.44 in 10.0 mi SSW 9.2 mph - N/A   Clear
10:35 PM 32.0 °F 24.2 °F 23.0 °F 69% 30.44 in 10.0 mi SSW 9.2 mph - N/A   Partly Cloudy
10:55 PM 33.8 °F 25.8 °F 24.8 °F 70% 30.43 in 10.0 mi SSW 10.4 mph - N/A   Partly Cloudy
11:15 PM 33.8 °F 25.8 °F 26.6 °F 75% 30.43 in 10.0 mi SSW 10.4 mph - N/A   Clear
11:35 PM 32.0 °F 23.6 °F 24.8 °F 75% 30.43 in 10.0 mi SSW 10.4 mph - N/A   Clear
11:55 PM 32.0 °F 24.2 °F 24.8 °F 75% 30.43 in 10.0 mi SSW 9.2 mph - N/A   Clear